sat.trackr.live / text

‹ back to catalog

STARLINK-6272

NORAD 56420 · 2023-061AY

PAYLOAD ACTIVE UNKNOWN

§ Identity

Operator
Country
US
Launch date
2023-05-04
Launch site
AFETR
Launch vehicle
Mass (kg)
RCS (m²)

Purposes: comms

External: N2YO · Heavens-Above · Gunter

§ Orbital elements

Epoch: 2026-09-19T23:23:26.317824Z

Period
94.27 min
Inclination
43.0040°
Eccentricity
0.0001557
Mean motion
15.27573577 rev/d
Perigee alt
482.0 km
Apogee alt
484.1 km
Semi-major
6,861.2 km
B*
8.1521e-7
RAAN
162.2828°
Arg perigee
278.0548°
Mean anomaly
82.0127°
Rev number
18,667

§ Raw data

STARLINK-62721 56420U 23061AY  26262.97461016 -.00000240  00000+0  81521-6 0  99902 56420  43.0040 162.2828 0001557 278.0548  82.0127 15.27573577186678

JSON: /api/v1/satellites/56420 · /tle

For live sub-satellite position, see the globe view (requires WebGL).

§ Visibility from observer

Set your observer location to see the next 7 days of passes ≥ 10°. The values pass through the URL so the page stays shareable.

No JS? Fill the form by hand. The geolocation button needs JavaScript.